This demonstration page uses our WeatherBlox Daily Observations layout. Learn more.

Left ArrowRight Arrow

Hourly Observations for February 11, 2016

Temp ( °F °C ) Dew Point ( °F °C ) Humidity (%) Winds ( mph kmh ) Pressure ( in mb ) Visibility ( mi km ) Precip ( " mm )
12:51 am 00:51 Clear 43 6.1 22 -5.6 43 43 SSE 3 6 30.15 1021 10 16.0934 N/A
1:51 am 01:51 Clear 41 5 22 -5.6 47 47 ESE 5 7 30.15 1021 10 16.0934 N/A
2:51 am 02:51 Clear 39 3.9 22 -5.6 50 50 ENE 5 7 30.15 1021 10 16.0934 N/A
3:51 am 03:51 Clear 38 3.3 23 -5 55 55 SSE 3 6 30.15 1021 10 16.0934 N/A
4:51 am 04:51 Clear 36 2.2 22 -5.6 57 57 N N/A 30.17 1022 10 16.0934 N/A
5:51 am 05:51 Clear 37 2.8 22 -5.6 54 54 ESE 5 7 30.19 1022 10 16.0934 N/A
6:51 am 06:51 Clear 34 1.1 21 -6.1 59 59 SE 3 6 30.22 1023 10 16.0934 N/A
7:51 am 07:51 Sunny 39 3.9 22 -5.6 50 50 ESE 3 6 30.23 1024 10 16.0934 N/A
8:51 am 08:51 Sunny 48 8.9 24 -4.4 39 39 E 3 6 30.24 1024 10 16.0934 N/A
9:51 am 09:51 Sunny 57 13.9 24 -4.4 28 28 N N/A 30.22 1023 10 16.0934 N/A
10:51 am 10:51 Sunny 61 16.1 22 -5.6 22 22 N N/A 30.22 1023 10 16.0934 N/A
11:51 am 11:51 Sunny 66 18.9 23 -5 19 19 N N/A 30.19 1022 10 16.0934 N/A
12:51 pm 12:51 Sunny 68 20 23 -5 18 18 undefined N/A 30.15 1021 10 16.0934 N/A
1:51 pm 13:51 Sunny 71 21.7 23 -5 16 16 NNW 6 9 30.11 1020 10 16.0934 N/A
2:51 pm 14:51 Sunny 74 23.3 21 -6.1 14 14 VRB 5 7 30.09 1019 10 16.0934 N/A
3:51 pm 15:51 Sunny 74 23.3 20 -6.7 13 13 WSW 7 11 30.09 1019 10 16.0934 N/A
4:51 pm 16:51 Sunny 75 23.9 17 -8.3 11 11 WNW 5 7 30.09 1019 10 16.0934 N/A
5:51 pm 17:51 Sunny 69 20.6 21 -6.1 16 16 WSW 6 9 30.11 1020 10 16.0934 N/A
6:51 pm 18:51 Clear 57 13.9 21 -6.1 25 25 N 5 7 30.15 1021 10 16.0934 N/A
7:51 pm 19:51 Clear 54 12.2 22 -5.6 29 29 N N/A 30.15 1021 10 16.0934 N/A
8:51 pm 20:51 Clear 51 10.6 22 -5.6 32 32 E 3 6 30.15 1021 10 16.0934 N/A
9:51 pm 21:51 Clear 49 9.4 22 -5.6 35 35 ENE 3 6 30.14 1021 10 16.0934 N/A
10:51 pm 22:51 Clear 48 8.9 22 -5.6 36 36 E 6 9 30.14 1021 10 16.0934 N/A
11:51 pm 23:51 Clear 47 8.3 22 -5.6 37 37 N N/A 30.14 1021 10 16.0934 N/A

Powered by AerisWeather